[Date Prev][Date Next][Thread Prev][Thread Next] - [Date Index][Thread Index][Author Index]

2 Line ISS Keps 6-22



ISS
1 25544U 98067A   04174.44548356  .00014795  00000-0  12902-3 0   450
2 25544  51.6338 298.9302 0005284 268.2018 217.8795 15.69231417319143

----
Via the sarex mailing list at AMSAT.ORG courtesy of AMSAT-NA.
To unsubscribe, send "unsubscribe sarex" to Majordomo@amsat.org



AMSAT Top AMSAT Home